Time,TemperatureF,DewpointF,PressureIn,WindDirection,WindDirectionDegrees,WindSpeedMPH,WindSpeedGustMPH,Humidity,HourlyPrecipIn,Conditions,Clouds,dailyrainin,SoftwareType,DateUTC
2013-01-10 00:05:00,72.0,68.2,30.26,ESE,105,0.0,0.0,88,0.00,,,0.00,Wunderground v.1.15,2013-01-10 05:05:00,
2013-01-10 00:10:00,71.9,68.2,30.26,ENE,74,0.0,0.0,88,0.00,,,0.00,Wunderground v.1.15,2013-01-10 05:10:00,
2013-01-10 00:15:00,71.9,68.2,30.26,ENE,78,0.0,0.0,88,0.00,,,0.00,Wunderground v.1.15,2013-01-10 05:15:00,
2013-01-10 00:20:00,71.8,68.1,30.26,ENE,78,0.0,0.0,88,0.00,,,0.00,Wunderground v.1.15,2013-01-10 05:20:00,
2013-01-10 00:25:00,71.8,68.1,30.26,ENE,77,0.0,0.0,88,0.00,,,0.00,Wunderground v.1.15,2013-01-10 05:25:00,
2013-01-10 00:30:00,71.7,68.0,30.26,ENE,77,0.0,1.0,88,0.00,,,0.00,Wunderground v.1.15,2013-01-10 05:30:00,
2013-01-10 00:35:00,71.6,67.9,30.26,NNE,29,0.0,0.0,88,0.00,,,0.00,Wunderground v.1.15,2013-01-10 05:35:00,
2013-01-10 00:40:00,71.5,67.8,30.26,East,80,0.0,0.0,88,0.00,,,0.00,Wunderground v.1.15,2013-01-10 05:40:00,
2013-01-10 00:45:00,71.5,67.8,30.26,ENE,74,0.0,0.0,88,0.00,,,0.00,Wunderground v.1.15,2013-01-10 05:45:00,
2013-01-10 00:55:00,71.3,67.9,30.26,ENE,76,0.0,0.0,89,0.00,,,0.00,Wunderground v.1.15,2013-01-10 05:55:00,
2013-01-10 01:00:00,71.2,67.8,30.26,ENE,65,0.0,0.0,89,0.00,,,0.00,Wunderground v.1.15,2013-01-10 06:00:00,
2013-01-10 01:05:00,71.1,67.7,30.26,ENE,65,0.0,4.0,89,0.00,,,0.00,Wunderground v.1.15,2013-01-10 06:05:00,
2013-01-10 01:15:00,70.8,67.4,30.26,ENE,74,0.0,4.0,89,0.00,,,0.00,Wunderground v.1.15,2013-01-10 06:15:00,
2013-01-10 01:20:00,70.7,67.3,30.26,ENE,74,0.0,4.0,89,0.00,,,0.00,Wunderground v.1.15,2013-01-10 06:20:00,
2013-01-10 01:30:00,70.6,67.2,30.26,ENE,74,0.0,4.0,89,0.00,,,0.00,Wunderground v.1.15,2013-01-10 06:30:00,
2013-01-10 01:40:00,70.4,67.0,30.26,East,79,0.0,4.0,89,0.00,,,0.00,Wunderground v.1.15,2013-01-10 06:40:00,
2013-01-10 01:45:00,70.3,66.9,30.26,East,79,0.0,4.0,89,0.00,,,0.00,Wunderground v.1.15,2013-01-10 06:45:00,
2013-01-10 01:55:00,70.3,66.9,30.26,ENE,78,0.0,4.0,89,0.00,,,0.00,Wunderground v.1.15,2013-01-10 06:55:00,
2013-01-10 02:05:00,70.2,67.1,30.26,ENE,69,0.0,4.0,90,0.00,,,0.00,Wunderground v.1.15,2013-01-10 07:05:00,
2013-01-10 02:15:00,70.3,67.2,30.26,ENE,70,1.0,4.0,90,0.00,,,0.00,Wunderground v.1.15,2013-01-10 07:15:00,
2013-01-10 02:20:00,70.3,67.2,30.26,ENE,71,1.0,1.0,90,0.00,,,0.00,Wunderground v.1.15,2013-01-10 07:20:00,
2013-01-10 02:30:00,70.4,67.3,30.26,East,98,0.0,4.0,90,0.00,,,0.00,Wunderground v.1.15,2013-01-10 07:30:00,
2013-01-10 02:35:00,70.4,67.3,30.26,ENE,69,0.0,4.0,90,0.00,,,0.00,Wunderground v.1.15,2013-01-10 07:35:00,
2013-01-10 02:45:00,70.5,67.4,30.25,ENE,68,1.0,4.0,90,0.00,,,0.00,Wunderground v.1.15,2013-01-10 07:45:00,
2013-01-10 02:55:00,70.6,67.5,30.25,East,80,0.0,4.0,90,0.00,,,0.00,Wunderground v.1.15,2013-01-10 07:55:00,
2013-01-10 03:05:00,70.5,67.4,30.25,East,85,0.0,4.0,90,0.00,,,0.00,Wunderground v.1.15,2013-01-10 08:05:00,
2013-01-10 03:15:00,70.5,67.4,30.25,ENE,74,0.0,4.0,90,0.00,,,0.00,Wunderground v.1.15,2013-01-10 08:15:00,
2013-01-10 03:20:00,70.5,67.4,30.25,ENE,74,0.0,4.0,90,0.00,,,0.00,Wunderground v.1.15,2013-01-10 08:20:00,
2013-01-10 03:30:00,70.4,67.3,30.25,ENE,71,1.0,1.0,90,0.00,,,0.00,Wunderground v.1.15,2013-01-10 08:30:00,
2013-01-10 03:40:00,70.4,67.3,30.25,ENE,75,0.0,4.0,90,0.00,,,0.00,Wunderground v.1.15,2013-01-10 08:40:00,
2013-01-10 03:45:00,70.4,67.3,30.24,ENE,76,0.0,4.0,90,0.00,,,0.00,Wunderground v.1.15,2013-01-10 08:45:00,
2013-01-10 03:55:00,70.4,67.3,30.24,ENE,72,1.0,4.0,90,0.00,,,0.00,Wunderground v.1.15,2013-01-10 08:55:00,
2013-01-10 04:05:00,70.4,67.3,30.24,ENE,71,1.0,4.0,90,0.00,,,0.00,Wunderground v.1.15,2013-01-10 09:05:00,
2013-01-10 04:15:00,70.4,67.3,30.24,East,80,1.0,4.0,90,0.00,,,0.00,Wunderground v.1.15,2013-01-10 09:15:00,
2013-01-10 04:25:00,70.4,67.3,30.23,ENE,78,1.0,4.0,90,0.00,,,0.00,Wunderground v.1.15,2013-01-10 09:25:00,
2013-01-10 04:30:00,70.4,67.3,30.23,ENE,69,1.0,4.0,90,0.00,,,0.00,Wunderground v.1.15,2013-01-10 09:30:00,
2013-01-10 04:40:00,70.3,67.2,30.23,SE,131,1.0,1.0,90,0.00,,,0.00,Wunderground v.1.15,2013-01-10 09:40:00,
2013-01-10 04:45:00,70.3,67.2,30.23,ENE,74,0.0,4.0,90,0.00,,,0.00,Wunderground v.1.15,2013-01-10 09:45:00,
2013-01-10 04:50:00,70.3,67.2,30.23,ENE,74,0.0,4.0,90,0.00,,,0.00,Wunderground v.1.15,2013-01-10 09:50:00,
2013-01-10 04:55:00,70.3,67.2,30.24,East,96,0.0,4.0,90,0.00,,,0.00,Wunderground v.1.15,2013-01-10 09:55:00,
2013-01-10 05:05:00,70.2,67.1,30.24,East,87,0.0,4.0,90,0.00,,,0.00,Wunderground v.1.15,2013-01-10 10:05:00,
2013-01-10 05:10:00,70.1,67.0,30.23,East,86,0.0,4.0,90,0.00,,,0.00,Wunderground v.1.15,2013-01-10 10:10:00,
2013-01-10 05:15:00,70.1,67.0,30.24,ENE,74,0.0,4.0,90,0.00,,,0.00,Wunderground v.1.15,2013-01-10 10:15:00,
2013-01-10 05:25:00,70.1,67.0,30.24,East,85,0.0,4.0,90,0.00,,,0.00,Wunderground v.1.15,2013-01-10 10:25:00,
2013-01-10 05:35:00,70.0,66.9,30.24,East,85,0.0,4.0,90,0.00,,,0.00,Wunderground v.1.15,2013-01-10 10:35:00,
2013-01-10 06:15:00,69.9,66.8,30.24,East,85,0.0,4.0,90,0.00,,,0.00,Wunderground v.1.15,2013-01-10 11:15:00,
2013-01-10 06:20:00,69.8,66.7,30.24,East,85,0.0,4.0,90,0.00,,,0.00,Wunderground v.1.15,2013-01-10 11:20:00,
2013-01-10 06:30:00,69.7,66.6,30.24,East,85,0.0,4.0,90,0.00,,,0.00,Wunderground v.1.15,2013-01-10 11:30:00,
2013-01-10 06:35:00,69.6,66.5,30.24,East,85,0.0,4.0,90,0.00,,,0.00,Wunderground v.1.15,2013-01-10 11:35:00,
2013-01-10 06:40:00,69.5,66.4,30.24,East,85,0.0,4.0,90,0.00,,,0.00,Wunderground v.1.15,2013-01-10 11:40:00,
2013-01-10 06:45:00,69.5,66.4,30.25,East,85,0.0,4.0,90,0.00,,,0.00,Wunderground v.1.15,2013-01-10 11:45:00,
2013-01-10 06:55:00,69.3,66.2,30.25,East,85,0.0,4.0,90,0.00,,,0.00,Wunderground v.1.15,2013-01-10 11:55:00,
2013-01-10 07:00:00,69.2,66.1,30.25,East,85,0.0,4.0,90,0.00,,,0.00,Wunderground v.1.15,2013-01-10 12:00:00,
2013-01-10 07:05:00,69.1,66.0,30.25,East,85,0.0,4.0,90,0.00,,,0.00,Wunderground v.1.15,2013-01-10 12:05:00,
2013-01-10 07:15:00,69.0,65.9,30.25,East,85,0.0,4.0,90,0.00,,,0.00,Wunderground v.1.15,2013-01-10 12:15:00,
2013-01-10 07:20:00,69.0,65.9,30.26,East,85,0.0,4.0,90,0.00,,,0.00,Wunderground v.1.15,2013-01-10 12:20:00,
2013-01-10 07:30:00,68.9,65.8,30.26,East,85,0.0,4.0,90,0.00,,,0.00,Wunderground v.1.15,2013-01-10 12:30:00,
2013-01-10 07:35:00,68.9,65.8,30.26,East,85,0.0,4.0,90,0.00,,,0.00,Wunderground v.1.15,2013-01-10 12:35:00,
2013-01-10 07:45:00,68.9,65.8,30.26,East,85,0.0,4.0,90,0.00,,,0.00,Wunderground v.1.15,2013-01-10 12:45:00,
2013-01-10 07:50:00,68.9,65.8,30.26,East,85,0.0,4.0,90,0.00,,,0.00,Wunderground v.1.15,2013-01-10 12:50:00,
2013-01-10 08:00:00,69.0,66.3,30.27,East,85,0.0,4.0,91,0.00,,,0.00,Wunderground v.1.15,2013-01-10 13:00:00,
2013-01-10 08:10:00,69.2,66.5,30.27,East,80,0.0,4.0,91,0.00,,,0.00,Wunderground v.1.15,2013-01-10 13:10:00,
2013-01-10 08:20:00,69.3,66.6,30.27,East,80,0.0,4.0,91,0.00,,,0.00,Wunderground v.1.15,2013-01-10 13:20:00,
2013-01-10 08:30:00,69.4,66.3,30.27,East,80,0.0,4.0,90,0.00,,,0.00,Wunderground v.1.15,2013-01-10 13:30:00,
2013-01-10 08:40:00,70.0,66.9,30.27,East,80,0.0,4.0,90,0.00,,,0.00,Wunderground v.1.15,2013-01-10 13:40:00,
2013-01-10 08:45:00,70.4,67.3,30.27,East,85,0.0,4.0,90,0.00,,,0.00,Wunderground v.1.15,2013-01-10 13:45:00,
2013-01-10 08:55:00,71.4,68.3,30.26,ESE,109,1.0,4.0,90,0.00,,,0.00,Wunderground v.1.15,2013-01-10 13:55:00,
2013-01-10 09:05:00,72.4,68.6,30.27,ENE,63,1.0,4.0,88,0.00,,,0.00,Wunderground v.1.15,2013-01-10 14:05:00,
2013-01-10 09:10:00,72.9,69.1,30.27,ENE,71,1.0,4.0,88,0.00,,,0.00,Wunderground v.1.15,2013-01-10 14:10:00,
2013-01-10 09:20:00,73.8,69.3,30.27,ESE,110,3.0,3.0,86,0.00,,,0.00,Wunderground v.1.15,2013-01-10 14:20:00,
2013-01-10 09:30:00,74.5,69.3,30.27,SE,131,3.0,7.0,84,0.00,,,0.00,Wunderground v.1.15,2013-01-10 14:30:00,
2013-01-10 09:35:00,74.8,69.3,30.27,East,101,4.0,7.0,83,0.00,,,0.00,Wunderground v.1.15,2013-01-10 14:35:00,
2013-01-10 09:45:00,75.4,69.9,30.27,East,86,3.0,4.0,83,0.00,,,0.00,Wunderground v.1.15,2013-01-10 14:45:00,
2013-01-10 09:50:00,75.8,69.9,30.27,ENE,65,3.0,3.0,82,0.00,,,0.00,Wunderground v.1.15,2013-01-10 14:50:00,
2013-01-10 10:00:00,76.2,69.6,30.26,ESE,107,3.0,4.0,80,0.00,,,0.00,Wunderground v.1.15,2013-01-10 15:00:00,
2013-01-10 10:10:00,76.5,69.9,30.25,NNE,25,3.0,4.0,80,0.00,,,0.00,Wunderground v.1.15,2013-01-10 15:10:00,
2013-01-10 10:20:00,76.5,69.9,30.25,East,92,3.0,3.0,80,0.00,,,0.00,Wunderground v.1.15,2013-01-10 15:20:00,
2013-01-10 10:25:00,76.4,69.4,30.25,NE,55,3.0,4.0,79,0.00,,,0.00,Wunderground v.1.15,2013-01-10 15:25:00,
2013-01-10 10:35:00,77.2,69.4,30.24,East,83,5.0,5.0,77,0.00,,,0.00,Wunderground v.1.15,2013-01-10 15:35:00,
2013-01-10 10:45:00,77.7,69.1,30.23,SE,128,5.0,6.0,75,0.00,,,0.00,Wunderground v.1.15,2013-01-10 15:45:00,
2013-01-10 10:55:00,77.9,68.9,30.23,ESE,108,7.0,7.0,74,0.00,,,0.00,Wunderground v.1.15,2013-01-10 15:55:00,
2013-01-10 11:05:00,78.3,68.9,30.22,ESE,113,4.0,5.0,73,0.00,,,0.00,Wunderground v.1.15,2013-01-10 16:05:00,
2013-01-10 11:15:00,79.1,69.3,30.22,SSE,154,3.0,4.0,72,0.00,,,0.00,Wunderground v.1.15,2013-01-10 16:15:00,
2013-01-10 11:25:00,79.1,68.9,30.22,ESE,105,4.0,8.0,71,0.00,,,0.00,Wunderground v.1.15,2013-01-10 16:25:00,
2013-01-10 11:30:00,79.1,68.9,30.21,ESE,114,4.0,4.0,71,0.00,,,0.00,Wunderground v.1.15,2013-01-10 16:30:00,
2013-01-10 11:35:00,78.9,68.3,30.21,ENE,70,5.0,5.0,70,0.00,,,0.00,Wunderground v.1.15,2013-01-10 16:35:00,
2013-01-10 11:40:00,78.6,68.8,30.21,ENE,78,4.0,4.0,72,0.00,,,0.00,Wunderground v.1.15,2013-01-10 16:40:00,
2013-01-10 11:45:00,78.9,68.3,30.21,ENE,78,3.0,4.0,70,0.00,,,0.00,Wunderground v.1.15,2013-01-10 16:45:00,
2013-01-10 11:50:00,79.1,68.9,30.20,ENE,71,3.0,4.0,71,0.00,,,0.00,Wunderground v.1.15,2013-01-10 16:50:00,
2013-01-10 12:00:00,79.8,68.7,30.20,ENE,70,4.0,7.0,69,0.00,,,0.00,Wunderground v.1.15,2013-01-10 17:00:00,
2013-01-10 12:05:00,80.5,69.0,30.19,ENE,71,3.0,7.0,68,0.00,,,0.00,Wunderground v.1.15,2013-01-10 17:05:00,
2013-01-10 12:15:00,80.8,67.9,30.19,ESE,111,4.0,5.0,65,0.00,,,0.00,Wunderground v.1.15,2013-01-10 17:15:00,
2013-01-10 12:20:00,81.0,67.7,30.19,ESE,119,4.0,4.0,64,0.00,,,0.00,Wunderground v.1.15,2013-01-10 17:20:00,
2013-01-10 12:25:00,81.5,68.1,30.19,ENE,65,4.0,4.0,64,0.00,,,0.00,Wunderground v.1.15,2013-01-10 17:25:00,
2013-01-10 12:30:00,81.4,67.6,30.19,NE,34,3.0,3.0,63,0.00,,,0.00,Wunderground v.1.15,2013-01-10 17:30:00,
2013-01-10 12:35:00,80.7,67.8,30.19,ENE,63,4.0,5.0,65,0.00,,,0.00,Wunderground v.1.15,2013-01-10 17:35:00,
2013-01-10 12:45:00,80.2,66.9,30.18,East,90,3.0,6.0,64,0.00,,,0.00,Wunderground v.1.15,2013-01-10 17:45:00,
2013-01-10 12:55:00,81.3,66.6,30.18,SSE,150,4.0,4.0,61,0.00,,,0.00,Wunderground v.1.15,2013-01-10 17:55:00,
2013-01-10 13:00:00,81.4,66.7,30.18,East,96,5.0,6.0,61,0.00,,,0.00,Wunderground v.1.15,2013-01-10 18:00:00,
2013-01-10 13:10:00,82.0,67.2,30.19,East,86,4.0,4.0,61,0.00,,,0.00,Wunderground v.1.15,2013-01-10 18:10:00,
2013-01-10 13:20:00,82.4,67.1,30.19,SSE,149,4.0,4.0,60,0.00,,,0.00,Wunderground v.1.15,2013-01-10 18:20:00,
2013-01-10 13:25:00,82.3,66.5,30.19,ENE,59,4.0,5.0,59,0.00,,,0.00,Wunderground v.1.15,2013-01-10 18:25:00,
2013-01-10 13:35:00,81.5,66.8,30.19,East,82,2.0,4.0,61,0.00,,,0.00,Wunderground v.1.15,2013-01-10 18:35:00,
2013-01-10 13:40:00,81.4,67.1,30.18,NE,43,2.0,4.0,62,0.00,,,0.00,Wunderground v.1.15,2013-01-10 18:40:00,
2013-01-10 13:45:00,81.2,66.9,30.19,SE,135,2.0,4.0,62,0.00,,,0.00,Wunderground v.1.15,2013-01-10 18:45:00,
2013-01-10 13:55:00,81.3,66.6,30.19,East,85,2.0,4.0,61,0.00,,,0.00,Wunderground v.1.15,2013-01-10 18:55:00,
2013-01-10 14:00:00,81.8,67.0,30.18,ENE,57,2.0,2.0,61,0.00,,,0.00,Wunderground v.1.15,2013-01-10 19:00:00,
2013-01-10 14:10:00,82.7,66.4,30.18,ESE,118,3.0,3.0,58,0.00,,,0.00,Wunderground v.1.15,2013-01-10 19:10:00,
2013-01-10 14:20:00,82.3,66.5,30.18,ESE,120,3.0,3.0,59,0.00,,,0.00,Wunderground v.1.15,2013-01-10 19:20:00,
2013-01-10 14:25:00,82.0,66.7,30.18,ENE,73,3.0,4.0,60,0.00,,,0.00,Wunderground v.1.15,2013-01-10 19:25:00,
2013-01-10 14:35:00,82.1,65.9,30.18,SE,138,3.0,6.0,58,0.00,,,0.00,Wunderground v.1.15,2013-01-10 19:35:00,
2013-01-10 14:40:00,82.3,66.0,30.18,ENE,65,3.0,6.0,58,0.00,,,0.00,Wunderground v.1.15,2013-01-10 19:40:00,
2013-01-10 14:50:00,82.9,66.1,30.18,ESE,107,2.0,4.0,57,0.00,,,0.00,Wunderground v.1.15,2013-01-10 19:50:00,
2013-01-10 14:55:00,83.2,65.9,30.19,ESE,117,3.0,4.0,56,0.00,,,0.00,Wunderground v.1.15,2013-01-10 19:55:00,
2013-01-10 15:05:00,83.2,65.9,30.19,East,90,3.0,4.0,56,0.00,,,0.00,Wunderground v.1.15,2013-01-10 20:05:00,
2013-01-10 15:10:00,82.7,65.9,30.19,SE,140,3.0,3.0,57,0.00,,,0.00,Wunderground v.1.15,2013-01-10 20:10:00,
2013-01-10 15:20:00,82.5,66.2,30.19,East,88,3.0,3.0,58,0.00,,,0.00,Wunderground v.1.15,2013-01-10 20:20:00,
2013-01-10 15:25:00,82.7,66.4,30.19,SE,140,3.0,4.0,58,0.00,,,0.00,Wunderground v.1.15,2013-01-10 20:25:00,
2013-01-10 15:30:00,82.5,66.2,30.20,NE,51,2.0,4.0,58,0.00,,,0.00,Wunderground v.1.15,2013-01-10 20:30:00,
2013-01-10 15:40:00,82.6,65.3,30.19,ENE,78,3.0,3.0,56,0.00,,,0.00,Wunderground v.1.15,2013-01-10 20:40:00,
2013-01-10 15:45:00,82.4,65.6,30.20,East,87,2.0,4.0,57,0.00,,,0.00,Wunderground v.1.15,2013-01-10 20:45:00,
2013-01-10 15:55:00,82.8,66.0,30.19,East,86,2.0,4.0,57,0.00,,,0.00,Wunderground v.1.15,2013-01-10 20:55:00,
2013-01-10 16:00:00,82.7,65.4,30.20,SE,136,3.0,3.0,56,0.00,,,0.00,Wunderground v.1.15,2013-01-10 21:00:00,
2013-01-10 16:10:00,81.9,65.2,30.20,East,84,1.0,4.0,57,0.00,,,0.00,Wunderground v.1.15,2013-01-10 21:10:00,
2013-01-10 16:20:00,81.7,65.5,30.20,ESE,103,1.0,1.0,58,0.00,,,0.00,Wunderground v.1.15,2013-01-10 21:20:00,
2013-01-10 16:25:00,81.7,65.5,30.20,East,84,1.0,4.0,58,0.00,,,0.00,Wunderground v.1.15,2013-01-10 21:25:00,
2013-01-10 16:35:00,81.4,64.7,30.20,ENE,77,1.0,4.0,57,0.00,,,0.00,Wunderground v.1.15,2013-01-10 21:35:00,
2013-01-10 16:45:00,81.5,64.8,30.20,SE,140,1.0,4.0,57,0.00,,,0.00,Wunderground v.1.15,2013-01-10 21:45:00,
2013-01-10 16:50:00,81.9,65.2,30.20,ESE,122,2.0,2.0,57,0.00,,,0.00,Wunderground v.1.15,2013-01-10 21:50:00,
2013-01-10 17:00:00,82.1,65.4,30.20,ESE,115,2.0,2.0,57,0.00,,,0.00,Wunderground v.1.15,2013-01-10 22:00:00,
2013-01-10 17:10:00,81.9,65.2,30.20,SSE,156,1.0,4.0,57,0.00,,,0.00,Wunderground v.1.15,2013-01-10 22:10:00,
2013-01-10 17:15:00,81.7,65.0,30.20,ESE,105,2.0,4.0,57,0.00,,,0.00,Wunderground v.1.15,2013-01-10 22:15:00,
2013-01-10 17:25:00,81.3,65.6,30.20,SE,126,1.0,4.0,59,0.00,,,0.00,Wunderground v.1.15,2013-01-10 22:25:00,
2013-01-10 17:35:00,80.6,66.8,30.20,South,171,1.0,4.0,63,0.00,,,0.00,Wunderground v.1.15,2013-01-10 22:35:00,
2013-01-10 17:40:00,79.2,66.9,30.21,South,186,1.0,1.0,66,0.00,,,0.00,Wunderground v.1.15,2013-01-10 22:40:00,
2013-01-10 17:50:00,77.6,66.6,30.21,South,186,0.0,4.0,69,0.00,,,0.00,Wunderground v.1.15,2013-01-10 22:50:00,
2013-01-10 18:00:00,76.8,66.7,30.21,South,186,0.0,4.0,71,0.00,,,0.00,Wunderground v.1.15,2013-01-10 23:00:00,
2013-01-10 18:05:00,76.4,66.7,30.21,South,186,0.0,4.0,72,0.00,,,0.00,Wunderground v.1.15,2013-01-10 23:05:00,
2013-01-10 18:15:00,75.5,66.6,30.21,South,186,0.0,4.0,74,0.00,,,0.00,Wunderground v.1.15,2013-01-10 23:15:00,
2013-01-10 18:20:00,75.1,66.2,30.21,South,186,0.0,4.0,74,0.00,,,0.00,Wunderground v.1.15,2013-01-10 23:20:00,
2013-01-10 18:30:00,74.7,66.2,30.21,South,186,0.0,4.0,75,0.00,,,0.00,Wunderground v.1.15,2013-01-10 23:30:00,
2013-01-10 18:40:00,74.4,66.0,30.21,South,186,0.0,4.0,75,0.00,,,0.00,Wunderground v.1.15,2013-01-10 23:40:00,
2013-01-10 18:45:00,74.2,66.1,30.22,South,186,0.0,4.0,76,0.00,,,0.00,Wunderground v.1.15,2013-01-10 23:45:00,
2013-01-10 18:55:00,73.7,66.0,30.22,South,186,0.0,4.0,77,0.00,,,0.00,Wunderground v.1.15,2013-01-10 23:55:00,
2013-01-10 19:00:00,73.5,66.2,30.22,South,186,0.0,4.0,78,0.00,,,0.00,Wunderground v.1.15,2013-01-11 00:00:00,
2013-01-10 19:10:00,73.2,65.9,30.22,East,86,0.0,4.0,78,0.00,,,0.00,Wunderground v.1.15,2013-01-11 00:10:00,
2013-01-10 19:15:00,73.3,65.7,30.22,East,88,1.0,4.0,77,0.00,,,0.00,Wunderground v.1.15,2013-01-11 00:15:00,
2013-01-10 19:25:00,73.7,66.0,30.22,East,88,0.0,4.0,77,0.00,,,0.00,Wunderground v.1.15,2013-01-11 00:25:00,
2013-01-10 19:30:00,73.7,66.0,30.22,East,88,0.0,4.0,77,0.00,,,0.00,Wunderground v.1.15,2013-01-11 00:30:00,
2013-01-10 19:35:00,73.7,66.0,30.22,East,88,0.0,4.0,77,0.00,,,0.00,Wunderground v.1.15,2013-01-11 00:35:00,
2013-01-10 19:45:00,73.8,66.1,30.22,SSE,154,0.0,4.0,77,0.00,,,0.00,Wunderground v.1.15,2013-01-11 00:45:00,
2013-01-10 19:50:00,73.9,66.2,30.23,SSE,154,0.0,4.0,77,0.00,,,0.00,Wunderground v.1.15,2013-01-11 00:50:00,
2013-01-10 19:55:00,73.9,66.2,30.23,SSE,154,0.0,4.0,77,0.00,,,0.00,Wunderground v.1.15,2013-01-11 00:55:00,
2013-01-10 20:00:00,73.9,66.2,30.23,SSE,154,0.0,4.0,77,0.00,,,0.00,Wunderground v.1.15,2013-01-11 01:00:00,
2013-01-10 20:05:00,73.9,66.2,30.23,SSE,154,0.0,4.0,77,0.00,,,0.00,Wunderground v.1.15,2013-01-11 01:05:00,
2013-01-10 20:15:00,73.7,66.0,30.23,SSE,154,0.0,4.0,77,0.00,,,0.00,Wunderground v.1.15,2013-01-11 01:15:00,
2013-01-10 20:20:00,73.5,66.2,30.23,SSE,154,0.0,4.0,78,0.00,,,0.00,Wunderground v.1.15,2013-01-11 01:20:00,
2013-01-10 20:30:00,73.3,66.0,30.23,SSE,154,0.0,4.0,78,0.00,,,0.00,Wunderground v.1.15,2013-01-11 01:30:00,
2013-01-10 20:45:00,73.2,66.3,30.23,East,91,0.0,4.0,79,0.00,,,0.00,Wunderground v.1.15,2013-01-11 01:45:00,
2013-01-10 20:55:00,73.1,66.2,30.24,East,96,0.0,4.0,79,0.00,,,0.00,Wunderground v.1.15,2013-01-11 01:55:00,
2013-01-10 21:05:00,72.8,65.5,30.24,ESE,118,0.0,4.0,78,0.00,,,0.00,Wunderground v.1.15,2013-01-11 02:05:00,
2013-01-10 21:15:00,72.4,65.2,30.24,East,80,0.0,4.0,78,0.00,,,0.00,Wunderground v.1.15,2013-01-11 02:15:00,
2013-01-10 21:25:00,72.2,65.0,30.24,ENE,68,0.0,4.0,78,0.00,,,0.00,Wunderground v.1.15,2013-01-11 02:25:00,
2013-01-10 21:30:00,72.0,64.8,30.25,ESE,120,0.0,4.0,78,0.00,,,0.00,Wunderground v.1.15,2013-01-11 02:30:00,
2013-01-10 21:35:00,71.9,64.7,30.24,SE,129,0.0,4.0,78,0.00,,,0.00,Wunderground v.1.15,2013-01-11 02:35:00,
2013-01-10 21:40:00,71.8,64.6,30.25,SE,127,0.0,4.0,78,0.00,,,0.00,Wunderground v.1.15,2013-01-11 02:40:00,
2013-01-10 21:50:00,71.5,64.3,30.25,East,85,0.0,4.0,78,0.00,,,0.00,Wunderground v.1.15,2013-01-11 02:50:00,
2013-01-10 21:55:00,71.4,64.2,30.25,East,85,0.0,4.0,78,0.00,,,0.00,Wunderground v.1.15,2013-01-11 02:55:00,
2013-01-10 22:00:00,71.2,64.0,30.25,ESE,103,0.0,4.0,78,0.00,,,0.00,Wunderground v.1.15,2013-01-11 03:00:00,
2013-01-10 22:05:00,71.1,64.3,30.25,East,84,0.0,4.0,79,0.00,,,0.00,Wunderground v.1.15,2013-01-11 03:05:00,
2013-01-10 22:10:00,71.0,64.2,30.25,East,84,1.0,4.0,79,0.00,,,0.00,Wunderground v.1.15,2013-01-11 03:10:00,
2013-01-10 22:15:00,70.8,64.0,30.25,East,96,1.0,4.0,79,0.00,,,0.00,Wunderground v.1.15,2013-01-11 03:15:00,
2013-01-10 22:20:00,70.7,63.9,30.25,East,95,0.0,4.0,79,0.00,,,0.00,Wunderground v.1.15,2013-01-11 03:20:00,
2013-01-10 22:25:00,70.5,63.7,30.24,ESE,111,1.0,4.0,79,0.00,,,0.00,Wunderground v.1.15,2013-01-11 03:25:00,
2013-01-10 22:30:00,70.4,63.6,30.24,East,80,1.0,1.0,79,0.00,,,0.00,Wunderground v.1.15,2013-01-11 03:30:00,
2013-01-10 22:35:00,70.3,63.5,30.25,East,92,0.0,4.0,79,0.00,,,0.00,Wunderground v.1.15,2013-01-11 03:35:00,
2013-01-10 22:40:00,70.2,63.4,30.25,East,92,0.0,4.0,79,0.00,,,0.00,Wunderground v.1.15,2013-01-11 03:40:00,
2013-01-10 22:50:00,70.0,63.5,30.25,ESE,121,1.0,4.0,80,0.00,,,0.00,Wunderground v.1.15,2013-01-11 03:50:00,
2013-01-10 22:55:00,70.0,63.5,30.25,East,80,1.0,4.0,80,0.00,,,0.00,Wunderground v.1.15,2013-01-11 03:55:00,
2013-01-10 23:00:00,69.9,63.4,30.25,ENE,59,1.0,1.0,80,0.00,,,0.00,Wunderground v.1.15,2013-01-11 04:00:00,
2013-01-10 23:05:00,69.9,63.4,30.26,ENE,78,0.0,4.0,80,0.00,,,0.00,Wunderground v.1.15,2013-01-11 04:05:00,
2013-01-10 23:10:00,69.9,63.4,30.25,East,82,0.0,4.0,80,0.00,,,0.00,Wunderground v.1.15,2013-01-11 04:10:00,
2013-01-10 23:15:00,69.8,63.3,30.25,ESE,109,1.0,4.0,80,0.00,,,0.00,Wunderground v.1.15,2013-01-11 04:15:00,
2013-01-10 23:25:00,69.6,63.5,30.25,ENE,71,0.0,4.0,81,0.00,,,0.00,Wunderground v.1.15,2013-01-11 04:25:00,
2013-01-10 23:30:00,69.5,63.4,30.26,ENE,70,0.0,4.0,81,0.00,,,0.00,Wunderground v.1.15,2013-01-11 04:30:00,
2013-01-10 23:35:00,69.4,63.3,30.26,ENE,69,0.0,4.0,81,0.00,,,0.00,Wunderground v.1.15,2013-01-11 04:35:00,
2013-01-10 23:45:00,69.3,63.2,30.26,ENE,57,1.0,4.0,81,0.00,,,0.00,Wunderground v.1.15,2013-01-11 04:45:00,
2013-01-10 23:50:00,69.3,63.2,30.26,ENE,77,1.0,1.0,81,0.00,,,0.00,Wunderground v.1.15,2013-01-11 04:50:00,
2013-01-10 23:55:00,69.2,63.5,30.25,East,86,1.0,4.0,82,0.00,,,0.00,Wunderground v.1.15,2013-01-11 04:55:00,